• In Germany
  • List of Countries
  • For 7 days
  • Water Temperature
  • Satellite Maps
  • Weather Map
  • Weather Widgets
  • user-avatar
    Login

    Hourly Weather Nuoro

    Today, 23 September, Sunday

    Time Temperature Precipitation Wind Pressure Humidity
    00:00 +18°C° 0 mm 2 mps 719 mmHg 70%
    01:00 +17°C° 0 mm 2 mps 719 mmHg 69%
    02:00 +17°C° 0 mm 2 mps 719 mmHg 68%
    03:00 +17°C° 0 mm 2 mps 719 mmHg 66%
    04:00 +17°C° 0 mm 2 mps 719 mmHg 65%
    05:00 +17°C° 0 mm 2 mps 719 mmHg 64%
    06:00 +18°C° 0 mm 2 mps 719 mmHg 64%
    07:00 +18°C° 0 mm 2 mps 719 mmHg 64%
    08:00 +21°C° 0 mm 2 mps 719 mmHg 58%
    09:00 +24°C° 0 mm 2 mps 720 mmHg 53%
    10:00 +27°C° 0 mm 2 mps 720 mmHg 47%
    11:00 +28°C° 0 mm 2 mps 720 mmHg 45%
    12:00 +29°C° 0 mm 2 mps 721 mmHg 43%
    13:00 +30°C° 0 mm 3 mps 721 mmHg 40%
    14:00 +30°C° 0 mm 3 mps 720 mmHg 43%
    15:00 +29°C° 0 mm 3 mps 720 mmHg 45%
    16:00 +29°C° 0 mm 3 mps 719 mmHg 47%
    17:00 +27°C° 0 mm 3 mps 719 mmHg 55%
    18:00 +25°C° 0 mm 3 mps 719 mmHg 63%
    19:00 +23°C° 0 mm 2 mps 719 mmHg 71%
    20:00 +21°C° 0 mm 2 mps 719 mmHg 75%
    21:00 +20°C° 0 mm 2 mps 719 mmHg 78%
    22:00 +20°C° 0 mm 2 mps 719 mmHg 81%
    23:00 +20°C° 0 mm 2 mps 719 mmHg 83%

    Tomorrow, 24 September, Monday

    Time Temperature Precipitation Wind Pressure Humidity
    00:00 +20°C° 0 mm 3 mps 718 mmHg 85%
    01:00 +19°C° 0 mm 3 mps 718 mmHg 86%
    02:00 +20°C° 0 mm 3 mps 718 mmHg 87%
    03:00 +20°C° 0 mm 3 mps 717 mmHg 88%
    04:00 +20°C° 0 mm 3 mps 717 mmHg 89%
    05:00 +20°C° 0 mm 3 mps 717 mmHg 89%
    06:00 +20°C° 0 mm 3 mps 717 mmHg 88%
    07:00 +21°C° 0 mm 3 mps 717 mmHg 88%
    08:00 +24°C° 0 mm 3 mps 717 mmHg 78%
    09:00 +25°C° 0 mm 4 mps 718 mmHg 67%
    10:00 +27°C° 0 mm 4 mps 718 mmHg 57%
    11:00 +27°C° 0 mm 5 mps 718 mmHg 52%
    12:00 +28°C° 0 mm 6 mps 718 mmHg 47%
    13:00 +28°C° 0 mm 6 mps 718 mmHg 42%
    14:00 +28°C° 0 mm 6 mps 718 mmHg 41%
    15:00 +27°C° 0 mm 5 mps 717 mmHg 40%
    16:00 +26°C° 0 mm 5 mps 717 mmHg 39%
    17:00 +23°C° 0 mm 4 mps 717 mmHg 44%
    18:00 +21°C° 0 mm 4 mps 717 mmHg 49%
    19:00 +19°C° 0 mm 3 mps 717 mmHg 54%
    20:00 +18°C° 0 mm 3 mps 717 mmHg 58%
    21:00 +18°C° 0 mm 3 mps 717 mmHg 63%
    22:00 +17°C° 0 mm 3 mps 718 mmHg 67%
    23:00 +17°C° 0 mm 3 mps 718 mmHg 68%

    Day after tomorrow, 25 September, Tuesday

    Time Temperature Precipitation Wind Pressure Humidity
    00:00 +17°C° 0 mm 2 mps 718 mmHg 69%
    01:00 +17°C° 0 mm 2 mps 718 mmHg 71%
    02:00 +17°C° 0 mm 2 mps 718 mmHg 71%
    03:00 +17°C° 0 mm 3 mps 718 mmHg 72%
    04:00 +17°C° 0 mm 3 mps 718 mmHg 72%
    05:00 +17°C° 0 mm 3 mps 718 mmHg 74%
    06:00 +18°C° 0 mm 3 mps 719 mmHg 76%
    07:00 +18°C° 0 mm 4 mps 719 mmHg 77%
    08:00 +19°C° 0.1 mm 3 mps 720 mmHg 75%
    09:00 +20°C° 0.1 mm 3 mps 720 mmHg 72%
    10:00 +21°C° 0.1 mm 3 mps 721 mmHg 70%
    11:00 +22°C° 0.5 mm 3 mps 721 mmHg 68%
    12:00 +24°C° 0.5 mm 3 mps 721 mmHg 67%
    13:00 +23°C° 0.5 mm 4 mps 721 mmHg 66%
    14:00 +22°C° 0.6 mm 4 mps 721 mmHg 70%
    15:00 +21°C° 0.6 mm 5 mps 721 mmHg 73%
    16:00 +21°C° 0.6 mm 5 mps 721 mmHg 77%
    17:00 +20°C° 0.2 mm 5 mps 721 mmHg 77%
    18:00 +20°C° 0.2 mm 5 mps 721 mmHg 78%
    19:00 +19°C° 0.2 mm 4 mps 721 mmHg 79%
    20:00 +19°C° 0 mm 4 mps 722 mmHg 78%
    21:00 +18°C° 0 mm 4 mps 722 mmHg 78%
    22:00 +18°C° 0 mm 4 mps 722 mmHg 78%
    23:00 +18°C° 0 mm 4 mps 723 mmHg 78%

    26 September, Wednesday

    Time Temperature Precipitation Wind Pressure Humidity
    00:00 +18°C° 0 mm 4 mps 723 mmHg 78%
    01:00 +17°C° 0 mm 4 mps 723 mmHg 78%
    02:00 +17°C° 0 mm 4 mps 723 mmHg 78%
    03:00 +17°C° 0 mm 4 mps 723 mmHg 79%
    04:00 +17°C° 0 mm 3 mps 723 mmHg 79%
    05:00 +17°C° 0 mm 4 mps 723 mmHg 78%
    06:00 +17°C° 0 mm 4 mps 723 mmHg 77%
    07:00 +17°C° 0 mm 4 mps 724 mmHg 77%
    08:00 +18°C° 0 mm 4 mps 724 mmHg 70%
    09:00 +20°C° 0 mm 4 mps 725 mmHg 64%
    10:00 +21°C° 0 mm 4 mps 725 mmHg 58%
    11:00 +22°C° 0 mm 4 mps 725 mmHg 56%
    12:00 +23°C° 0 mm 4 mps 726 mmHg 53%
    13:00 +25°C° 0 mm 4 mps 726 mmHg 51%
    14:00 +23°C° 0 mm 4 mps 726 mmHg 53%
    15:00 +24°C° 0 mm 3 mps 726 mmHg 55%
    16:00 +22°C° 0 mm 3 mps 725 mmHg 57%
    17:00 +21°C° 0 mm 3 mps 725 mmHg 64%
    18:00 +19°C° 0 mm 2 mps 725 mmHg 70%
    19:00 +18°C° 0 mm 2 mps 726 mmHg 77%
    20:00 +18°C° 0 mm 1 mps 726 mmHg 79%
    21:00 +18°C° 0 mm 1 mps 726 mmHg 82%
    22:00 +16°C° 0 mm 1 mps 726 mmHg 85%
    23:00 +16°C° 0 mm 1 mps 726 mmHg 85%

    27 September, Thursday

    Time Temperature Precipitation Wind Pressure Humidity
    00:00 +16°C° 0 mm 1 mps 726 mmHg 86%
    01:00 +15°C° 0 mm 1 mps 725 mmHg 86%
    02:00 +15°C° 0 mm 1 mps 725 mmHg 86%
    03:00 +15°C° 0 mm 1 mps 725 mmHg 86%
    04:00 +15°C° 0 mm 1 mps 725 mmHg 85%
    05:00 +15°C° 0 mm 1 mps 725 mmHg 83%
    06:00 +15°C° 0 mm 1 mps 725 mmHg 81%
    07:00 +15°C° 0 mm 1 mps 725 mmHg 79%
    08:00 +19°C° 0 mm 1 mps 725 mmHg 68%
    09:00 +22°C° 0 mm 1 mps 726 mmHg 56%
    10:00 +24°C° 0 mm 1 mps 726 mmHg 45%
    11:00 +25°C° 0 mm 1 mps 726 mmHg 43%
    12:00 +26°C° 0 mm 1 mps 726 mmHg 40%
    13:00 +27°C° 0 mm 2 mps 725 mmHg 38%
    14:00 +26°C° 0 mm 2 mps 725 mmHg 40%
    15:00 +26°C° 0 mm 2 mps 724 mmHg 43%
    16:00 +25°C° 0 mm 2 mps 724 mmHg 45%
    17:00 +23°C° 0 mm 2 mps 723 mmHg 53%
    18:00 +21°C° 0 mm 1 mps 723 mmHg 61%
    19:00 +19°C° 0 mm 1 mps 722 mmHg 69%
    20:00 +19°C° 0 mm 1 mps 722 mmHg 71%
    21:00 +18°C° 0 mm 1 mps 722 mmHg 73%
    22:00 +18°C° 0 mm 1 mps 722 mmHg 75%
    23:00 +16°C° 0 mm 1 mps 721 mmHg 76%

    28 September, Friday

    Time Temperature Precipitation Wind Pressure Humidity
    00:00 +16°C° 0 mm 1 mps 721 mmHg 77%
    01:00 +16°C° 0 mm 1 mps 721 mmHg 78%
    02:00 +15°C° 0 mm 1 mps 720 mmHg 78%
    03:00 +15°C° 0 mm 1 mps 720 mmHg 78%
    04:00 +15°C° 0 mm 1 mps 719 mmHg 78%
    05:00 +15°C° 0 mm 1 mps 719 mmHg 76%
    06:00 +15°C° 0 mm 1 mps 719 mmHg 75%
    07:00 +15°C° 0 mm 1 mps 719 mmHg 73%
    08:00 +19°C° 0 mm 1 mps 719 mmHg 62%
    09:00 +22°C° 0 mm 1 mps 720 mmHg 50%
    10:00 +25°C° 0 mm 1 mps 720 mmHg 39%
    11:00 +26°C° 0 mm 1 mps 720 mmHg 37%
    12:00 +27°C° 0 mm 2 mps 720 mmHg 34%
    13:00 +27°C° 0 mm 2 mps 720 mmHg 31%
    14:00 +27°C° 0 mm 2 mps 719 mmHg 35%
    15:00 +26°C° 0 mm 2 mps 719 mmHg 38%
    16:00 +25°C° 0 mm 3 mps 718 mmHg 41%
    17:00 +23°C° 0 mm 2 mps 718 mmHg 51%
    18:00 +20°C° 0 mm 2 mps 718 mmHg 60%
    19:00 +19°C° 0 mm 1 mps 717 mmHg 69%
    20:00 +18°C° 0 mm 1 mps 718 mmHg 72%
    21:00 +18°C° 0 mm 1 mps 718 mmHg 74%
    22:00 +16°C° 0 mm 1 mps 718 mmHg 77%
    23:00 +16°C° 0 mm 1 mps 717 mmHg 77%
    Show more